Weather observations for the past three days for
Miami, Miami International Airport
Imperial (Metric)
Date Time (edt) Wind (mph) Vis. (mi.) Weather Sky Cond. Temperature (ºF) Relative Humidity Wind Chill (°F) Heat Index (°F) Pressure Precipitation (in)
Air Dwpt 6 hour altimeter (in) sea level (mb) 1 hr 3 hr 6 hr
Max. Min.
13 01:53 S 8 10.00 Overcast FEW040 BKN075 BKN110 OVC250 77 73 77 73.9 88% 78 29.92 1013.3 0.38
13 00:53 S 9 10.00 Overcast FEW013 BKN100 OVC250 75.9 73.9 94% 75 29.96 1014.4
12 23:53 SE 14 G 21 10.00 Overcast FEW015 FEW060 BKN100 OVC250 75.9 73 91% 76 29.96 1014.7 0.02
12 22:53 S 13 8.00 Light Rain FEW020 OVC120 75.9 75 97% 75 29.98 1015.2 0.12 0.36
12 21:53 S 7 7.00 Rain FEW030 SCT080 OVC100 75 73.9 96% 73 29.98 1015.1 0.13
12 20:53 S 5 7.00 Rain FEW030 SCT065 OVC090 75 73 94% 73 29.98 1015.2 0.11
12 19:53 S 6 5.00 Rain Fog/Mist SCT011 BKN034 OVC085 75 73 81 75 94% 73 29.97 1014.9 0.56 4.31
12 18:53 S 8 2.00 Heavy Rain Fog/Mist SCT009 BKN011 OVC025 75.9 73.9 94% 75 29.98 1015.2 0.43
12 17:53 N 12 G 22 2.00 Heavy Rain Fog/Mist SCT007 BKN015CB BKN027 75 75 100% 72 29.94 1014.0 1.54
12 16:53 Vrbl 6 G 25 0.50 Thunderstorm Heavy Rain Fog BKN005 OVC009CB 75.9 75 97% 75 29.93 1013.5 1.1 1.78
12 15:53 E 8 4.00 Thunderstorm Light Rain Fog/Mist SCT009 BKN011CB OVC020 77 75.9 96% 78 29.92 1013.3 0.39
12 14:53 W 6 3.00 Thunderstorm Rain Fog/Mist SCT009 BKN014CB OVC035 81 79 94% 89 29.93 1013.4 0.29
12 13:53 SW 15 G 22 5.00 Thunderstorm Light Rain FEW005 SCT014CB OVC037 80.1 77 84 77 90% 86 29.91 1012.7 0.74 1.55
12 12:53 S 6 10.00 Thunderstorm FEW005 BKN011CB OVC018 80.1 78.1 94% 86 29.89 1012.0 0.48
12 11:53 SE 10 G 23 3.00 Light Rain Fog/Mist FEW008 BKN020CB OVC044 77 75 94% 78 29.92 1013.3 0.29
12 10:53 SE 17 G 29 9.00 Overcast FEW012 BKN020CB OVC090 78.1 73.9 87% 81 29.93 1013.6 0.04 0.04
12 09:53 SE 9 G 22 10.00 Overcast FEW014 BKN020CB BKN055 OVC150 82.9 77 82% 92 29.92 1013.2
12 07:53 S 8 10.00 Mostly Cloudy FEW017 FEW090 BKN150 82 79 82 77 90% 92 29.92 1013.1 0.01
12 06:53 S 7 10.00 Mostly Cloudy FEW017 BKN085 BKN130 BKN250 81 78.1 91% 89 29.92 1013.1
12 05:53 S 6 10.00 Overcast FEW015 BKN080 BKN120 OVC250 80.1 78.1 94% 86 29.91 1012.8
12 04:53 Vrbl 3 10.00 Overcast FEW014 BKN090 OVC250 79 75.9 90% 83 29.91 1012.9 0.01
12 03:53 Vrbl 3 10.00 Overcast SCT034 BKN120 OVC250 78.1 75.9 93% 81 29.91 1012.8
12 02:53 Vrbl 3 10.00 Overcast FEW022 FEW080 OVC120 78.1 75.9 93% 81 29.92 1013.1 0.01
12 01:53 NE 5 10.00 Light Rain FEW019 BKN025 OVC110 78.1 75 79 77 90% 81 29.95 1014.1 0.36
12 00:53 Calm 10.00 Overcast FEW010 SCT042 OVC100 77 75 94% 78 29.95 1014.3 0.02
11 23:53 Calm 7.00 Light Rain FEW013 OVC110 77 75 94% 78 29.96 1014.5 0.1
11 22:53 SW 9 7.00 Light Rain FEW013 SCT031 OVC090 78.1 75 90% 81 29.96 1014.6 0.08 0.24
11 21:53 E 5 7.00 Light Rain FEW025 SCT065 BKN110 OVC150 79 77 94% 83 29.93 1013.6 0.14
11 20:53 E 7 7.00 Rain FEW025 BKN110 OVC150 78.1 75.9 93% 81 29.93 1013.5 0.02
11 19:53 NE 6 10.00 Overcast FEW010 FEW025 OVC150 77 75 79 77 94% 78 29.9 1012.6 0.01 2.06
11 18:53 Calm 7.00 Light Rain FEW005 BKN020 OVC090 77 75.9 96% 78 29.91 1012.7 0.12
11 17:53 NE 6 6.00 Rain Fog/Mist FEW005 BKN018 OVC110 77 75 94% 78 29.91 1012.7 0.18
11 16:53 Vrbl 5 6.00 Rain Fog/Mist SCT011 BKN025 OVC100 78.1 75.9 93% 81 29.91 1012.7 0.5 1.75
11 15:53 NW 6 G 20 1.00 Thunderstorm Heavy Rain Fog/Mist SCT004 OVC016CB 77 75.9 96% 78 29.88 1012.0 0.99
11 14:53 NE 5 6.00 Rain Fog/Mist SCT008 SCT025CB OVC110 78.1 75.9 93% 81 29.9 1012.3 0.26
11 13:53 W 3 7.00 Rain FEW070 BKN095 OVC110 79 77 82 77 94% 83 29.91 1012.9 0.07 1.17
11 12:53 N 3 10.00 Light Rain SCT015 BKN050 OVC090 79 77 94% 83 29.94 1013.7 0.27
11 11:53 W 6 4.00 Heavy Rain Fog/Mist SCT005 BKN011CB OVC035 78.1 77 97% 81 29.94 1013.8 0.2
11 10:53 W 8 10.00 Light Rain FEW007 SCT017 BKN060 OVC130 78.1 75.9 93% 81 29.93 1013.5 0.09 0.63
11 09:53 W 3 10.00 Thunderstorm Light Rain SCT020CB SCT055 BKN080 BKN130 OVC170 82 78.1 88% 91 29.92 1013.1
11 08:53 S 5 10.00 Thunderstorm Light Rain FEW012 SCT018CB BKN075 OVC250 80.1 78.1 94% 86 29.89 1012.2 0.54
11 06:53 S 3 10.00 Overcast FEW025 BKN180 OVC240 82 78.1 88% 91 29.89 1012.0
11 05:53 S 5 7.00 Mostly Cloudy FEW025 FEW070 BKN250 81 78.1 91% 89 29.86 1011.3
11 04:53 S 5 7.00 Mostly Cloudy FEW025 SCT070 BKN250 80.1 77 90% 86 29.87 1011.5
11 03:53 S 10 G 22 5.00 Light Rain Fog/Mist SCT020 BKN030 BKN070 BKN250 79 75 88% 83 29.87 1011.6
11 02:53 S 3 10.00 Mostly Cloudy BKN025 BKN040 BKN250 84 77 80% 94 29.87 1011.6
11 01:53 SE 7 10.00 A Few Clouds FEW025 FEW045 FEW250 84 77 86 82.9 80% 94 29.87 1011.6
11 00:53 Calm 0.00 Partly Cloudy FEW025 SCT250 84 75.9 77% 93 29.88 1011.9
10 23:53 SE 8 10.00 Mostly Cloudy FEW025 BKN250 84 75.9 77% 93 29.88 1012.0
10 22:53 SE 9 10.00 Mostly Cloudy FEW025 BKN250 84 77 80% 94 29.88 1011.9
10 21:53 S 7 10.00 Mostly Cloudy FEW025 BKN250 84.9 75 72% 93 29.88 1011.7
10 20:53 S 9 G 18 10.00 Mostly Cloudy FEW025 FEW080 BKN250 84.9 75 72% 93 29.87 1011.4
10 19:53 S 9 G 18 10.00 Mostly Cloudy FEW025 FEW080 BKN250 86 75.9 91 80.1 72% 96 29.85 1010.8 0.05
10 18:53 S 13 G 23 10.00 Mostly Cloudy FEW030CB FEW110 BKN250 86 75.9 72% 96 29.85 1010.7
10 17:53 S 12 G 28 10.00 Mostly Cloudy FEW030 FEW110 BKN250 89.1 75.9 65% 100 29.83 1010.2
10 16:53 SE 10 G 28 10.00 Mostly Cloudy SCT030 SCT110 BKN250 89.1 75.9 65% 100 29.85 1010.7 0.05
10 15:53 SE 14 G 23 10.00 Mostly Cloudy SCT030 SCT110 BKN250 90 75.9 63% 102 29.84 1010.5
10 14:53 SE 12 G 18 10.00 Mostly Cloudy SCT030 SCT080 BKN250 89.1 75.9 65% 100 29.86 1011.1 0.05
10 13:53 E 6 7.00 Thunderstorm Light Rain SCT025CB BKN048 OVC250 80.1 72 91 77 76% 84 29.89 1012.2 0.51 0.51
10 12:53 S 9 10.00 Mostly Cloudy SCT030CB SCT080 BKN250 88 75 66% 98 29.89 1012.0
10 11:53 SW 10 10.00 Mostly Cloudy BKN041 BKN055 89.1 73.9 61% 98 29.89 1012.2
10 10:53 W 9 10.00 Mostly Cloudy SCT027CB SCT050 SCT075 BKN250 89.1 75 63% 99 29.9 1012.7
10 09:53 W 7 10.00 Mostly Cloudy SCT021CB BKN040 BKN070 BKN250 87.1 77 72% 99 29.91 1012.8
10 08:53 S 6 10.00 Mostly Cloudy FEW025 BKN250 84.9 77 77% 95 29.9 1012.6
10 07:53 SW 5 10.00 A Few Clouds FEW025 FEW150 82 77 82 77 85% 90 29.9 1012.4
10 06:53 SW 3 10.00 A Few Clouds FEW025 FEW080 80.1 75.9 87% 85 29.88 1011.8
10 05:53 Calm 10.00 A Few Clouds FEW025 78.1 75.9 93% 81 29.87 1011.5
10 04:53 Calm 10.00 A Few Clouds FEW025 79 75.9 90% 83 29.87 1011.4
10 03:53 Calm 10.00 Fair CLR 78.1 75.9 93% 81 29.86 1011.2
10 02:53 Calm 10.00 A Few Clouds FEW075 78.1 77 97% 81 29.86 1011.1
Date Time (edt) Wind (mph) Vis. (mi.) Weather Sky Cond. Air Dwpt Max. Min. Relative Humidity Wind Chill (°F) Heat Index (°F) altimeter (in) sea level (mb) 1 hr 3 hr 6 hr
6 hour
Temperature (ºF) Pressure Precipitation (in)